Regional Weather Roundup
Issued by NWS

Home | Current Version | Previous Version | Graphics & Text | Print | Product List | Glossary On
Versions: 1 2 3 4 5 6 7 8 9 10 11 12 13 14 15 16 17 18 19 20 21 22 23 24 25 26 27 28
000
ASUS45 KCYS 291610
RWRWY

WYOMING REGIONAL WEATHER ROUNDUP
NATIONAL WEATHER SERVICE CHEYENNE WY
1000 AM MDT SUN MAY 29 2016

NOTE:  "FAIR" INDICATES FEW OR NO CLOUDS BELOW 12,000 FEET
WITH NO SIGNIFICANT WEATHER AND/OR OBSTRUCTIONS TO VISIBILITY.

WYZ001-291700-
YELLOWSTONE NATIONAL PARK

CITY           SKY/WX    TMP DP  RH WIND       PRES   REMARKS
LK YELLOWSTONE   N/A     42  28  57 E3        30.26F
W YELLOWSTONE  NOT AVBL

$$
WYZ002>013-054>058-071-098>099-291700-
NORTHERN WYOMING

CITY           SKY/WX    TMP DP  RH WIND       PRES   REMARKS
JACKSON        NOT AVBL
CODY           FAIR      63  32  31 S12       30.11S
GREYBULL       FAIR      64  39  39 E3        30.09F
WORLAND        FAIR      62  44  51 W5        30.10F
SHERIDAN       FAIR      67  48  50 VRB5      30.08F
BUFFALO        FAIR      63  45  51 S12       30.12F
GILLETTE       FAIR      65  46  50 S13       30.10F
HULETT         FAIR      68  43  40 W5        30.11S
NEWCASTLE      FAIR      66  36  32 SE5G16    30.12S

$$
WYZ014>020-022>026-101>103-291700-
CENTRAL WYOMING

CITY           SKY/WX    TMP DP  RH WIND       PRES   REMARKS
BIG PINEY      FAIR      53  29  39 SE3       30.25F
PINEDALE       FAIR      54  28  37 CALM      30.26S
DUBOIS         FAIR      57  23  26 N8G17     30.20S
LANDER         FAIR      60  33  36 VRB3      30.15F
RIVERTON       FAIR      59  35  40 S6        30.16F
CASPER         FAIR      60  39  45 SW8       30.16S
DOUGLAS          N/A    N/A N/A N/A MISG      30.15S

$$
WYZ021-027>030-104>119-291700-
SOUTHERN WYOMING

CITY           SKY/WX    TMP DP  RH WIND       PRES   REMARKS
EVANSTON       FAIR      58  32  37 VRB3      30.23S
KEMMERER         N/A     55  32  41 E3        30.26S
FORT BRIDGER   SUNNY     57  36  44 E6        30.27S
ROCK SPRINGS   FAIR      54  33  45 W5        30.24S
DIXON          FAIR      60  38  44 CALM      30.26S
RAWLINS        FAIR      61  34  36 W10       30.23S
SARATOGA       FAIR      59  36  41 W5        30.25S
LARAMIE        FAIR      59  35  40 S5        30.24S
CHEYENNE       FAIR      68  36  30 S10       30.19F
TORRINGTON     PTSUNNY   63  48  58 CALM      30.11F
PINE BLUFFS    FAIR      70  37  30 SW5       30.17S

$$




USA.gov is the U.S. government's official web portal to all federal, state and local government web resources and services.